Weather History for Grand Marais Airport, MN

Change the Weather History Date:

Friday, April 12, 2013

  Actual Average Record
Temperature  
Mean Temperature 22 °F -  
Max Temperature 26 °F 42 °F 66 °F (1998)
Min Temperature 19 °F 25 °F 12 °F (1997)
Degree Days  
Heating Degree Days 42    
Moisture  
Dew Point 16 °F    
Average Humidity 79    
Maximum Humidity 86    
Minimum Humidity 64    
Precipitation  
Precipitation 0.05 in - - ()
Sea Level Pressure  
Sea Level Pressure 29.78 in    
Wind  
Wind Speed 16 mph (NNE)    
Max Wind Speed 21 mph    
Max Gust Speed 31 mph    
Visibility 2 miles    
Events Snow    
Averages and records for this station are not official NWS values.
T = Trace of Precipitation, MM = Missing Value Source: NWS Daily Summary

Daily Weather History Graph

Daily Weather History Graph

Search for Another Location

Airport:

Trip Planner

Search our weather history database for the weather conditions in past years. The results will help you decide how hot, cold, wet, or windy it might be!

Date:

Astronomy

Apr. 12, 2013 Rise Set
Actual Time 6:17 AM CDT 7:47 PM CDT
Civil Twilight 5:45 AM CDT 8:20 PM CDT
Nautical Twilight 5:06 AM CDT 8:59 PM CDT
Astronomical Twilight 4:24 AM CDT 9:42 PM CDT
Moon 7:18 AM CDT (4/12) 10:29 PM CDT (4/12)
Length of Visible Light 14h 34m
Length of Day
13h 30m
Waxing Crescent, 5% of the Moon is Illuminated
Apr 12
Waxing Crescent
Apr 18
First Quarter
Apr 25
Full
May 2
Last Quarter
May 9
New

Hourly Weather History & Observations

Time (CDT) Temp. Windchill Dew Point Humidity Pressure Visibility Wind Dir Wind Speed Gust Speed Precip Events Conditions
12:14 AM 26.6 °F 13.8 °F 15.8 °F 64% 29.87 in 7.0 mi NE 17.3 mph 28.8 mph N/A   Mostly Cloudy
12:34 AM 26.6 °F 13.8 °F 15.8 °F 64% 29.86 in 7.0 mi NNE 17.3 mph 27.6 mph N/A   Scattered Clouds
12:53 AM 26.6 °F 12.7 °F 15.8 °F 64% 29.87 in 4.0 mi NE 20.7 mph 31.1 mph N/A   Haze
1:13 AM 24.8 °F 10.7 °F 15.8 °F 69% 29.87 in 4.0 mi NE 19.6 mph 27.6 mph N/A   Haze
1:34 AM 24.8 °F 11.9 °F 15.8 °F 69% 29.86 in 2.0 mi NE 16.1 mph 31.1 mph N/A Snow Light Snow
1:53 AM 24.8 °F 11.5 °F 15.8 °F 69% 29.86 in 2.5 mi NE 17.3 mph 26.5 mph N/A Snow Light Snow
2:13 AM 24.8 °F 12.4 °F 17.6 °F 74% 29.85 in 1.5 mi NE 15.0 mph 28.8 mph N/A Snow Light Snow
2:34 AM 24.8 °F 11.9 °F 17.6 °F 74% 29.85 in 1.2 mi NE 16.1 mph 23.0 mph N/A Snow Light Snow
2:54 AM 23.0 °F 9.2 °F 17.6 °F 80% 29.83 in 1.2 mi NNE 17.3 mph 26.5 mph N/A Snow Light Snow
3:14 AM 23.0 °F 8.0 °F 17.6 °F 80% 29.82 in 1.2 mi NNE 20.7 mph 29.9 mph N/A Snow Light Snow
3:34 AM 23.0 °F 9.2 °F 17.6 °F 80% 29.81 in 1.0 mi NNE 17.3 mph 27.6 mph N/A Snow Light Snow
3:53 AM 23.0 °F 9.2 °F 17.6 °F 80% 29.81 in 1.2 mi NNE 17.3 mph 23.0 mph N/A Snow Light Snow
4:13 AM 23.0 °F 8.3 °F 17.6 °F 80% 29.80 in 1.2 mi NNE 19.6 mph 27.6 mph 0.01 in Snow Light Snow
4:34 AM 21.2 °F 6.8 °F 17.6 °F 86% 29.80 in 1.0 mi NNE 17.3 mph 21.9 mph 0.02 in Snow Snow
4:53 AM 21.2 °F 6.4 °F 17.6 °F 86% 29.80 in 0.8 mi NNE 18.4 mph 25.3 mph 0.02 in Snow Snow
5:13 AM 21.2 °F 7.8 °F 17.6 °F 86% 29.79 in 0.8 mi NNE 15.0 mph 20.7 mph N/A Snow Snow
5:34 AM 21.2 °F 8.9 °F 17.6 °F 86% 29.79 in 1.0 mi NNE 12.7 mph 19.6 mph 0.01 in Snow Light Snow
5:53 AM 21.2 °F 7.3 °F 17.6 °F 86% 29.78 in 1.2 mi NNE 16.1 mph 20.7 mph 0.01 in Snow Light Snow
6:13 AM 21.2 °F 6.0 °F 15.8 °F 80% 29.78 in 1.5 mi NNE 19.6 mph - N/A Snow Light Snow
6:33 AM 21.2 °F 6.0 °F 15.8 °F 80% 29.77 in 1.8 mi NNE 19.6 mph 26.5 mph N/A Snow Light Snow
6:53 AM 19.4 °F 3.6 °F 15.8 °F 86% 29.77 in 1.2 mi NNE 19.6 mph 28.8 mph N/A Snow Light Snow
7:13 AM 19.4 °F 3.6 °F 15.8 °F 86% 29.76 in 1.5 mi NNE 19.6 mph 27.6 mph N/A Snow Light Snow
7:34 AM 19.4 °F 4.1 °F 15.8 °F 86% 29.76 in 1.2 mi NNE 18.4 mph 25.3 mph N/A Snow Light Snow
7:53 AM 19.4 °F 5.5 °F 14.0 °F 80% 29.76 in 1.0 mi NNE 15.0 mph 25.3 mph N/A Snow Light Snow
8:13 AM 19.4 °F 4.5 °F 14.0 °F 80% 29.76 in 1.8 mi NNE 17.3 mph 24.2 mph N/A Snow Light Snow
8:34 AM 19.4 °F 5.5 °F 14.0 °F 80% 29.76 in 1.0 mi NNE 15.0 mph 26.5 mph N/A Snow Light Snow
8:53 AM 19.4 °F 4.1 °F 14.0 °F 80% 29.76 in 0.8 mi NNE 18.4 mph 27.6 mph N/A Snow Light Snow
9:14 AM 19.4 °F 3.6 °F 14.0 °F 80% 29.76 in 0.8 mi NNE 19.6 mph 26.5 mph N/A Snow Light Snow
9:53 AM 19.4 °F 3.6 °F 14.0 °F 80% 29.76 in 0.8 mi NNE 19.6 mph 25.3 mph N/A Snow Light Snow
10:14 AM 21.2 °F 6.8 °F 14.0 °F 74% 29.76 in 1.2 mi NNE 17.3 mph 21.9 mph N/A Snow Light Snow
10:33 AM 21.2 °F 7.8 °F 14.0 °F 74% 29.76 in 1.0 mi North 15.0 mph 20.7 mph N/A Snow Light Snow
10:53 AM 21.2 °F 5.6 °F 14.0 °F 74% 29.76 in 1.0 mi NNE 20.7 mph 25.3 mph N/A Snow Light Snow
11:14 AM 21.2 °F 6.8 °F 14.0 °F 74% 29.76 in 1.8 mi NNE 17.3 mph 21.9 mph N/A Snow Light Snow
11:33 AM 21.2 °F 7.3 °F 15.8 °F 80% 29.76 in 1.0 mi North 16.1 mph 23.0 mph N/A Snow Light Snow
11:54 AM 21.2 °F 7.3 °F 15.8 °F 80% 29.76 in 1.2 mi NNE 16.1 mph 19.6 mph N/A Snow Light Snow
12:13 PM 23.0 °F 9.6 °F 15.8 °F 74% 29.76 in 0.5 mi North 16.1 mph 19.6 mph N/A Snow Snow
12:33 PM 23.0 °F 10.1 °F 15.8 °F 74% 29.76 in 0.8 mi North 15.0 mph 23.0 mph N/A Snow Light Snow
12:53 PM 23.0 °F 11.7 °F 17.6 °F 80% 29.76 in 0.5 mi NNE 11.5 mph 18.4 mph N/A Snow Snow
1:14 PM 24.8 °F 13.4 °F 17.6 °F 74% 29.75 in 0.5 mi NNE 12.7 mph 19.6 mph N/A Snow Snow
1:33 PM 24.8 °F 11.1 °F 17.6 °F 74% 29.75 in 0.5 mi NNE 18.4 mph 24.2 mph N/A Snow Snow
1:53 PM 24.8 °F 11.1 °F 17.6 °F 74% 29.75 in 0.8 mi NNE 18.4 mph 23.0 mph N/A Snow Light Snow
2:14 PM 24.8 °F 11.9 °F 15.8 °F 69% 29.75 in 1.0 mi NNE 16.1 mph 20.7 mph N/A Snow Light Snow
2:33 PM 23.0 °F 9.2 °F 17.6 °F 80% 29.76 in 0.8 mi NNE 17.3 mph 21.9 mph N/A Snow Light Snow
2:53 PM 23.0 °F 11.1 °F 15.8 °F 74% 29.75 in 1.5 mi NNE 12.7 mph - N/A Snow Light Snow
3:13 PM 23.0 °F 11.1 °F 15.8 °F 74% 29.75 in 1.0 mi NNE 12.7 mph 20.7 mph N/A Snow Light Snow
3:34 PM 24.8 °F 14.0 °F 17.6 °F 74% 29.75 in 1.0 mi NNE 11.5 mph - N/A Snow Light Snow
3:53 PM 23.0 °F 10.6 °F 15.8 °F 74% 29.75 in 1.0 mi NNE 13.8 mph 19.6 mph N/A Snow Light Snow
4:13 PM 23.0 °F 12.4 °F 15.8 °F 74% 29.75 in 1.2 mi NNE 10.4 mph 19.6 mph N/A Snow Light Snow
4:34 PM 23.0 °F 13.1 °F 15.8 °F 74% 29.75 in 0.8 mi NNE 9.2 mph 16.1 mph N/A Snow Light Snow
4:53 PM 21.2 °F 9.5 °F 17.6 °F 86% 29.76 in 0.5 mi NNE 11.5 mph 18.4 mph N/A Snow Snow
5:13 PM 21.2 °F 9.5 °F 15.8 °F 80% 29.77 in 1.0 mi NE 11.5 mph 18.4 mph 0.01 in Snow Light Snow
5:34 PM 21.2 °F 8.9 °F 15.8 °F 80% 29.78 in 0.5 mi NNE 12.7 mph 18.4 mph 0.01 in Snow Snow
5:53 PM 21.2 °F 9.5 °F 15.8 °F 80% 29.78 in 1.0 mi NNE 11.5 mph - 0.01 in Snow Light Snow
6:13 PM 21.2 °F 10.9 °F 15.8 °F 80% 29.78 in 0.5 mi North 9.2 mph - N/A Snow Snow
6:34 PM 21.2 °F 10.9 °F 15.8 °F 80% 29.78 in 1.0 mi North 9.2 mph - N/A Snow Light Snow
6:53 PM 19.4 °F 8.6 °F 15.8 °F 86% 29.78 in 1.0 mi NNW 9.2 mph - N/A Snow Snow
7:14 PM 19.4 °F 8.6 °F 15.8 °F 86% 29.78 in 1.5 mi North 9.2 mph - N/A Snow Light Snow
7:33 PM 19.4 °F 8.6 °F 15.8 °F 86% 29.78 in 1.8 mi NNW 9.2 mph - N/A Snow Light Snow
7:54 PM 19.4 °F 9.5 °F 15.8 °F 86% 29.78 in 2.5 mi North 8.1 mph - 0.01 in Snow Light Snow
8:14 PM 19.4 °F 8.6 °F 15.8 °F 86% 29.78 in 2.5 mi North 9.2 mph - N/A Snow Light Snow
8:33 PM 19.4 °F 8.6 °F 15.8 °F 86% 29.78 in 2.5 mi North 9.2 mph - N/A Snow Light Snow
8:53 PM 19.4 °F 11.5 °F 15.8 °F 86% 29.78 in 2.5 mi NNW 5.8 mph - N/A Snow Light Snow
9:13 PM 19.4 °F 10.4 °F 15.8 °F 86% 29.77 in 3.0 mi North 6.9 mph - N/A Snow Light Snow
9:33 PM 19.4 °F 8.6 °F 15.8 °F 86% 29.77 in 4.0 mi North 9.2 mph - N/A Snow Light Snow
9:53 PM 19.4 °F 8.6 °F 15.8 °F 86% 29.77 in 5.0 mi North 9.2 mph - N/A Snow Light Snow
10:13 PM 19.4 °F 8.6 °F 15.8 °F 86% 29.77 in 10.0 mi North 9.2 mph - N/A Snow Light Snow
10:33 PM 19.4 °F 10.4 °F 15.8 °F 86% 29.77 in 10.0 mi North 6.9 mph - N/A   Overcast
10:54 PM 19.4 °F 8.6 °F 15.8 °F 86% 29.76 in 10.0 mi NNW 9.2 mph - N/A Snow Light Snow
11:14 PM 19.4 °F 9.5 °F 15.8 °F 86% 29.76 in 7.0 mi North 8.1 mph - N/A Snow Light Snow
11:33 PM 19.4 °F 8.6 °F 15.8 °F 86% 29.75 in 1.2 mi North 9.2 mph - N/A Snow Light Snow
11:53 PM 19.4 °F 8.6 °F 15.8 °F 86% 29.75 in 4.0 mi North 9.2 mph - N/A Snow Light Snow